Location: Milton Keynes
(52.0316°N, 0.7531°W)
Time: 22:42:46
(UTC+00:00)

N. Korean satellite - Pass Details

Date: 02 October 2020
Orbit: 452 x 505 km, 97.2° (Epoch: 28 October)

Event Time Altitude Azimuth Distance (km) Brightness Sun altitude
Rises 06:21:01 0° 18° (NNE) 2,584 10.6 -7.8°
Reaches altitude 10° 06:23:11 10° 25° (NNE) 1,688 9.7 -7.4°
Maximum altitude 06:26:40 43° 98° (E) 689 8.0 -6.9°
Drops below altitude 10° 06:30:03 10° 172° (S) 1,643 9.3 -6.4°
Sets 06:32:09 0° 179° (S) 2,506 10.2 -6.1°
